User: anonymous   Login
Location: Caltech
(34.1382°N, 118.1253°W)
Time: 17:14:16
(UTC-07:00)
Language:

GPS 2-04 Rocket1 - Orbit

View from above orbital plane
View from above orbital plane
View from above satellite
View from above satellite

Ground track
Ground track

The orbit data is extracted from the following two-line orbital elements,

1 20303U 89085B   15238.96244792 +.00003936 +00000-0 +16005-3 0  9996
2 20303 035.6300 188.3396 0119918 116.1847 299.1682 15.17793085400492
Epoch (UTC): 26 August 2015 23:05:55
Eccentricity: 0.0119918
inclination: 35.6300°
perigee height: 430 km
apogee height: 595 km
right ascension of ascending node: 188.3396°
argument of perigee: 116.1847°
revolutions per day: 15.17793085
mean anomaly at epoch: 299.1682°
orbit number at epoch: 40049

The dashed part of the orbit path shows where the satellite is in the earth's shadow,  

DLR